Change the Weather History Date:

Saturday, August 9, 2014

  Actual Average Record
Temperature  
Mean Temperature 79 °F 77 °F  
Max Temperature 87 °F 85 °F 104 °F (2001)
Min Temperature 70 °F 70 °F 61 °F (1962)
Degree Days  
Heating Degree Days 0 0  
Month to date heating degree days 0 0  
Since 1 June heating degree days 0 16  
Since 1 July heating degree days 0 0  
Cooling Degree Days 14 12  
Month to date cooling degree days 100 112  
Year to date cooling degree days 764 794  
Since 1 June cooling degree days 714 728  
Growing Degree Days 28 (Base 50)    
Moisture  
Dew Point 55 °F    
Average Humidity 50    
Maximum Humidity 73    
Minimum Humidity 27    
Precipitation  
Precipitation 0.00 in 0.14 in 2.97 in (1976)
Month to date precipitation 0.47 1.32  
Year to date precipitation 32.03 27.45  
Snow  
Snow 0.00 in 0.00 in - ()
Month to date snowfall 0.0 0.0  
Since 1 July snowfall 0.0 0.0  
Snow Depth 0.00 in    
Sea Level Pressure  
Sea Level Pressure 30.08 in    
Wind  
Wind Speed 4 mph (NNE)    
Max Wind Speed 13 mph    
Max Gust Speed 16 mph    
Visibility 10 miles    
Events      
T = Trace of Precipitation, MM = Missing Value Source: NWS Daily Summary

Daily Weather History Graph

Daily Weather History Graph

Search for Another Location

Airport or City:

Trip Planner

Search our weather history database for the weather conditions in past years. The results will help you decide how hot, cold, wet, or windy it might be!

Date:

Astronomy

Aug. 09, 2014 Rise Set
Actual Time 5:59 AM EDT 8:01 PM EDT
Civil Twilight 5:29 AM EDT 8:31 PM EDT
Nautical Twilight 4:53 AM EDT 9:08 PM EDT
Astronomical Twilight 4:13 AM EDT 9:47 PM EDT
Moon 7:00 PM EDT (8/9) 4:37 AM EDT (8/9)
Length of Visible Light 15h 01m
Length of Day
14h 01m
Waxing Gibbous, 98% of the Moon is Illuminated
Aug 9
Waxing Gibbous
Aug 10
Full
Aug 17
Last Quarter
Aug 25
New
Sep 2
First Quarter

Hourly Weather History & Observations

Time (EDT) Temp. Heat Index Dew Point Humidity Pressure Visibility Wind Dir Wind Speed Gust Speed Precip Events Conditions
12:51 AM 73.9 °F - 55.9 °F 53% 30.07 in 10.0 mi NNW 5.8 mph - N/A   Partly Cloudy
1:51 AM 73.0 °F - 57.0 °F 57% 30.06 in 10.0 mi Calm Calm - N/A   Partly Cloudy
2:51 AM 71.6 °F - 60.8 °F 69% 30.06 in 10.0 mi WNW 3.5 mph - N/A   Partly Cloudy
3:51 AM 71.1 °F - 61.0 °F 70% 30.07 in 10.0 mi Calm Calm - N/A   Partly Cloudy
4:51 AM 71.6 °F - 59.0 °F 64% 30.07 in 10.0 mi Calm Calm - N/A   Partly Cloudy
5:51 AM 70.0 °F - 61.0 °F 73% 30.09 in 10.0 mi Calm Calm - N/A   Partly Cloudy
6:51 AM 71.1 °F - 57.9 °F 63% 30.10 in 10.0 mi NNW 4.6 mph - N/A   Partly Cloudy
7:51 AM 71.6 °F - 59.0 °F 64% 30.12 in 10.0 mi North 6.9 mph - N/A   Partly Cloudy
8:51 AM 73.4 °F - 57.2 °F 57% 30.12 in 10.0 mi NNE 8.1 mph - N/A   Partly Cloudy
9:51 AM 77.0 °F - 55.9 °F 48% 30.11 in 10.0 mi NE 8.1 mph - N/A   Partly Cloudy
10:51 AM 80.1 °F 80.4 °F 57.0 °F 45% 30.11 in 10.0 mi NE 4.6 mph - N/A   Partly Cloudy
11:51 AM 82.0 °F 81.4 °F 55.0 °F 39% 30.10 in 8.0 mi NNE 4.6 mph - N/A   Scattered Clouds
12:51 PM 82.9 °F - 51.1 °F 33% 30.09 in 10.0 mi NNE 4.6 mph - N/A   Scattered Clouds
1:51 PM 82.9 °F - 48.0 °F 29% 30.08 in 10.0 mi ENE 5.8 mph - N/A   Scattered Clouds
2:51 PM 84.2 °F - 46.4 °F 27% 30.08 in 10.0 mi WNW 5.8 mph - N/A   Scattered Clouds
3:51 PM 84.9 °F - 46.9 °F 27% 30.07 in 10.0 mi NNE 4.6 mph - N/A   Scattered Clouds
4:51 PM 84.0 °F - 46.9 °F 27% 30.06 in 10.0 mi NE 4.6 mph - N/A   Scattered Clouds
5:51 PM 84.0 °F - 51.1 °F 32% 30.06 in 10.0 mi ENE 4.6 mph - N/A   Scattered Clouds
6:51 PM 82.9 °F - 50.0 °F 32% 30.06 in 10.0 mi NE 4.6 mph - N/A   Scattered Clouds
7:51 PM 82.0 °F - 51.1 °F 34% 30.07 in 10.0 mi NE 4.6 mph - N/A   Scattered Clouds
8:51 PM 80.1 °F 80.1 °F 55.0 °F 42% 30.08 in 10.0 mi SSE 3.5 mph - N/A   Partly Cloudy
9:51 PM 78.8 °F - 55.4 °F 44% 30.09 in 10.0 mi South 3.5 mph - N/A   Partly Cloudy
10:51 PM 79.0 °F - 57.0 °F 47% 30.10 in 10.0 mi Calm Calm - N/A   Partly Cloudy